This is the latest recevied weather packets stored in our database for station/object WA1OUI. If no packets are shown the sender has not sent any weather packets the latest 10 day(s).
| Time | Temp. | Humidity | Pressure | Rain* | Wind** | Luminosity | Snow |
|---|---|---|---|---|---|---|---|
| 1777569314 | 11.67° C | 91% | 1004.4 hPa | 0 mm | - | 140 W/m² | - |
| 1777569011 | 11.67° C | 91% | 1004.5 hPa | 0 mm | - | 195 W/m² | - |
| 1777568707 | 11.67° C | 91% | 1004.6 hPa | 0 mm | - | 164 W/m² | - |
| 1777568405 | 11.67° C | 91% | 1004.7 hPa | 0 mm | - | 1101 W/m² | - |
| 1777568102 | 11.67° C | 91% | 1004.9 hPa | 0 mm | - | 350 W/m² | - |
| 1777567798 | 11.11° C | 91% | 1004.9 hPa | 0.51 mm | - | 185 W/m² | - |
| 1777567495 | 11.11° C | 94% | 1004.7 hPa | 0.51 mm | - | 230 W/m² | - |
| 1777567192 | 11.11° C | 95% | 1004.8 hPa | 0 mm | - | 184 W/m² | - |
| 1777566890 | 11.11° C | 95% | 1005.1 hPa | 0 mm | - | 150 W/m² | - |
| 1777566588 | 11.11° C | 95% | 1005 hPa | 0 mm | - | 157 W/m² | - |
| 1777566285 | 10.56° C | 94% | 1005.3 hPa | 0 mm | - | 200 W/m² | - |
| 1777565982 | 10.56° C | 95% | 1005.4 hPa | 0 mm | - | 179 W/m² | - |
| 1777565677 | 10.56° C | 96% | 1005.5 hPa | 0.51 mm | - | 107 W/m² | - |
| 1777565374 | 10.56° C | 95% | 1005.4 hPa | 0.51 mm | - | 194 W/m² | - |
| 1777565070 | 10.56° C | 96% | 1005.6 hPa | 0 mm | - | 138 W/m² | - |
| 1777564766 | 10.56° C | 96% | 1005.5 hPa | 0 mm | - | 155 W/m² | - |
| 1777564461 | 10.56° C | 97% | 1005.7 hPa | 0 mm | - | 132 W/m² | - |
| 1777564157 | 10.56° C | 97% | 1005.8 hPa | 0 mm | - | 141 W/m² | - |
| 1777563854 | 10.56° C | 98% | 1005.7 hPa | 0 mm | - | 120 W/m² | - |
| 1777563550 | 10° C | 98% | 1005.4 hPa | 0 mm | - | 114 W/m² | - |
| 1777563249 | 10° C | 98% | 1005.3 hPa | 0 mm | - | 123 W/m² | - |
| 1777562946 | 10° C | 98% | 1005.5 hPa | 0 mm | - | 100 W/m² | - |
| 1777562642 | 10° C | 98% | 1005.3 hPa | 0 mm | - | 90 W/m² | - |
| 1777562342 | 10° C | 98% | 1005.6 hPa | 0 mm | - | 92 W/m² | - |
| 1777562038 | 10° C | 98% | 1005.4 hPa | 0 mm | - | 74 W/m² | - |
* Rain latest hour (hover to see other rain measurements)
** Current wind speed in m/s (hover to see current wind gust speed)